Location: Ca�n Batista
(41.4099°N, 1.7752°E)
Time: 13:51:00
(UTC+00:00)

Resurs 01 Rocket - Pass Details

Date: 03 March 2021
Orbit: 635 x 643 km, 98.0° (Epoch: 21 April)

Event Time Altitude Azimuth Distance (km) Brightness Sun altitude
Exits shadow 19:12:39 10° 36° (NE) 2,028 3.9 -17.0°
Drops below altitude 10° 19:12:39 10° 36° (NE) 2,029 3.9 -17.0°
Sets 19:16:00 0° 8° (N) 2,945 5.0 -17.6°
